sat.trackr.live / text

‹ back to catalog

STARLINK-4624

NORAD 53684 · 2022-105AN

PAYLOAD ACTIVE UNKNOWN

§ Identity

Operator
Country
US
Launch date
2022-08-31
Launch site
AFWTR
Launch vehicle
Mass (kg)
RCS (m²)

Purposes: comms

External: N2YO · Heavens-Above · Gunter

§ Orbital elements

Epoch: 2026-05-25T02:45:00.764352Z

Period
95.64 min
Inclination
97.4513°
Eccentricity
0.0002953
Mean motion
15.05577981 rev/d
Perigee alt
547.7 km
Apogee alt
551.8 km
Semi-major
6,927.9 km
B*
9.3833e-4
RAAN
25.0607°
Arg perigee
86.0944°
Mean anomaly
274.0620°
Rev number
20,470

§ Raw data

STARLINK-46241 53684U 22105AN  26145.11459218  .00013480  00000+0  93833-3 0  99992 53684  97.4513  25.0607 0002953  86.0944 274.0620 15.05577981204709

JSON: /api/v1/satellites/53684 · /tle

For live sub-satellite position, see the globe view (requires WebGL).

§ Visibility from observer

Set your observer location to see the next 7 days of passes ≥ 10°. The values pass through the URL so the page stays shareable.

No JS? Fill the form by hand. The geolocation button needs JavaScript.